Location: Unspecified
(64.9000°N, 0.0000°E)
Time: 17:27:38
(UTC+00:00)

Transit 2A Rocket - Pass Details

Date: 21 June 2019
Orbit: 590 x 913 km, 66.7° (Epoch: 22 August)

Event Time Altitude Azimuth Distance (km) Brightness Sun altitude
Rises 18:05:45 0° 303° (WNW) 3,428 9.6 20.7°
Reaches altitude 10° 18:08:24 10° 297° (WNW) 2,444 9.4 20.4°
Maximum altitude 18:13:40 43° 228° (SW) 1,095 6.5 19.9°
Drops below altitude 10° 18:18:28 10° 159° (SSE) 2,230 7.1 19.4°
Sets 18:20:49 0° 152° (SSE) 3,096 7.8 19.1°
